{"data":{"norad_id":47861,"epoch":"2026-05-25T01:23:19.229280Z","epoch_age_seconds":67230,"freshness":"FRESH","line1":"1 47861U 21021B   26145.05786145  .00005679  00000+0  19453-3 0  9997","line2":"2 47861  53.1605 263.1273 0000677  72.7502 287.3574 15.31712470288099","mean_motion":15.3171247,"eccentricity":6.77e-5,"inclination_deg":53.1605,"raan_deg":263.1273,"arg_perigee_deg":72.7502,"mean_anomaly_deg":287.3574,"bstar":0.00019453,"rev_number":28809,"period_min":94.012422579546,"perigee_km":470.2391566007,"apogee_km":471.16648951275,"semimajor_km":6848.8398230567,"source":"CELESTRAK","updated_at":"2026-05-25T13:38:16.609328Z"}}